Retour au catalogue

SL-12 R/B

AUX MOTOR

ActifHEO
NORAD 29682·ROCKET BODY·🇷🇺 Russia

Lancé Dec 25, 2006 depuis Baikonur Cosmodrome

Loading…

Prochains Passages (prochaines 24 heures)

TLE

FraisSource: Space-Track

Époque: Sep 14, 2026, 11:50 UTC

1 29682U 06062H   26257.49327908  .00000026  00000-0  53843-3 0  9999
2 29682  65.1381 346.9872 5634165 247.8174  45.0810  4.25390974305374

Suivez SL-12 R/B en temps réel avec AllMySat

Download on the App Store